Meteopurmerend
purmerend
Purmerend - Baaienwijk



My webcam  My webcam


Onweer radar Meer informatie blitzortung!


Regen radar Meer informatie rain snow radar


Bezoek onze andere website:

CandyAppleRed WebdesignWebdesign Purmerend Candy Apple Red

MeteopurmerendBlog

Template documentation
and downloads



Het weer levert geen direct gevaar op.    Er zijn geen waarschuwingen afgegeven.

15 daagse weersverwachting Hallein (AT)

  • Overzicht
  • Per uur
  • 15 dagen
  • Extra
  • Vergelijk
  • Kaarten
  • Dagkaart
  • Meer »
  • Info
  • Statistieken
  • Directe link
    Temp 6h Neerslag Wind  
 05:42     20:47    Daglengte: 15:05 Vandaag
08:00
19°
6.0 mm
2
14:00
22°
 
3
20:00
18°
33.9 mm
1
 05:43     20:46    Daglengte: 15:03 Morgen
02:00
16°
 
1
08:00
17°
 
1
14:00
24°
 
3
20:00
22°
 
1
 05:44     20:44    Daglengte: 15:00 Vrijdag 30 Jul
02:00
18°
35.7 mm
2
08:00
19°
116.8 mm
2
14:00
26°
 
2
20:00
21°
59.3 mm
2
 05:46     20:43    Daglengte: 14:57 Zaterdag 31 Jul
02:00
18°
126.2 mm
2
Locatie info
Region: Salzburg
Latitude: 47.6815°N
Longitude: 13.0926°E
447 masl
Postcode: 5400
Temp/Neerslag /Baro Onweer/Dauwpunt
    Temp Baro 1h Neerslag Dauwpunt Wind UV Bewolking  
 05:42     20:47    Daglengte: 15:05 Vandaag
06:00
17°
1015.4 hPa
48%
11.8°
2
Windvlaag: 2.9 m/s
76%
07:00
18°
1015.6 hPa 3.1 mm
72%
12.6°
2
Windvlaag: 3 m/s
53%
08:00
19°
1015.6 hPa 2.8 mm
72%
12.1°
2
Windvlaag: 2 m/s
58%
09:00
21°
1015.4 hPa
66%
11.1°
2
Windvlaag: -0.9 m/s
38%
10:00
21°
1015.3 hPa
25%
10.8°
2
Windvlaag: -2.7 m/s
33%
11:00
22°
1015.0 hPa
68%
11.0°
2
Windvlaag: -3 m/s
41%
12:00
23°
1014.8 hPa
69%
11.3°
2
Windvlaag: -3.6 m/s
60%
13:00
23°
1014.3 hPa
40%
11.7°
3
Windvlaag: -4.1 m/s
53%
14:00
22°
1014.5 hPa
80%
11.7°
3
Windvlaag: -4.3 m/s
62%
15:00
20°
1015.6 hPa 8.3 mm
82%
14.4°
4
Windvlaag: -2 m/s
86% warningclass
16:00
19°
1015.9 hPa 8.8 mm
82%
17.9°
2
Windvlaag: -2.9 m/s
86% warningclass
17:00
19°
1016.1 hPa 8.7 mm
82%
17.5°
2
Windvlaag: -2.8 m/s
86%
18:00
18°
1016.4 hPa 8.0 mm
82%
17.5°
1
Windvlaag: 0.2 m/s
67%
19:00
18°
1016.6 hPa
82%
17.4°
2
Windvlaag: 2.3 m/s
73%
20:00
18°
1017.0 hPa
82%
17.2°
1
Windvlaag: 3.5 m/s
67%
21:00
17°
1017.5 hPa
79%
16.4°
2
Windvlaag: 4.2 m/s
71%
22:00
17°
1017.3 hPa
75%
16.2°
2
Windvlaag: 3.9 m/s
58%
23:00
17°
1017.2 hPa
29%
15.8°
1
Windvlaag: 3.5 m/s
38%
 05:43     20:46    Daglengte: 15:03 Morgen
00:00
17°
1017.2 hPa
17%
15.6°
1
Windvlaag: 2.3 m/s
32%
01:00
16°
1017.2 hPa
14%
15.2°
1
Windvlaag: 1.9 m/s
21%
02:00
16°
1017.1 hPa
14%
14.5°
1
Windvlaag: 2.1 m/s
30%
03:00
15°
1017.0 hPa
14%
14.3°
2
Windvlaag: 2.1 m/s
9%
04:00
15°
1017.0 hPa
15%
13.8°
2
Windvlaag: 2 m/s
7%
05:00
15°
1017.1 hPa
14%
13.5°
2
Windvlaag: 1.9 m/s
8%
06:00
14°
1017.2 hPa
14%
13.1°
2
Windvlaag: 1.8 m/s
8%
07:00
15°
1017.3 hPa
14%
13.9°
1
Windvlaag: 1.4 m/s
8%
08:00
17°
1017.2 hPa
14%
16.1°
1
Windvlaag: 1.2 m/s
10%
09:00
19°
1016.8 hPa
14%
17.6°
1
Windvlaag: 1.4 m/s
8%
10:00
21°
1016.5 hPa
14%
17.2°
1
Windvlaag: 0 m/s
6%
11:00
22°
1016.2 hPa
14%
14.2°
2
Windvlaag: -2.4 m/s
4%
12:00
23°
1015.9 hPa
14%
13.8°
2
Windvlaag: -4.1 m/s
13%
13:00
24°
1015.4 hPa
14%
13.6°
2
Windvlaag: -4.4 m/s
12%
14:00
24°
1014.8 hPa
14%
13.0°
3
Windvlaag: -4.4 m/s
15%
15:00
24°
1014.4 hPa
14%
12.7°
3
Windvlaag: -4.3 m/s
17%
16:00
25°
1014.0 hPa
14%
12.2°
2
Windvlaag: -4 m/s
19%
17:00
25°
1013.8 hPa
14%
12.0°
2
Windvlaag: -3.5 m/s
11%
18:00
24°
1013.5 hPa
14%
12.9°
2
Windvlaag: -3 m/s
17%
19:00
23°
1013.6 hPa
14%
14.5°
1
Windvlaag: -2.9 m/s
16%
20:00
22°
1013.7 hPa
14%
16.8°
1
Windvlaag: -2.4 m/s
12%
21:00
20°
1014.4 hPa
14%
19.6°
1
Windvlaag: 1.3 m/s
12%
22:00
19°
1014.6 hPa
14%
18.8°
1
Windvlaag: 2.8 m/s
24%
23:00
19°
1014.2 hPa
21%
17.5°
2
Windvlaag: 2.6 m/s
48%
 05:44     20:44    Daglengte: 15:00 Vrijdag 30 Jul
00:00
18°
1014.3 hPa 17.3 mm
22%
17.6°
1
Windvlaag: 2 m/s
44%
01:00
18°
1014.1 hPa
21%
17.1°
1
Windvlaag: 1.4 m/s
38%
02:00
18°
1013.8 hPa 18.4 mm
21%
16.6°
2
Windvlaag: 1.8 m/s
59%
03:00
18°
1013.6 hPa 19.2 mm
21%
16.1°
2
Windvlaag: 1.8 m/s
54%
04:00
17°
1013.4 hPa 19.3 mm
21%
15.2°
2
Windvlaag: 2.1 m/s
41%
05:00
17°
1013.2 hPa 19.3 mm
21%
15.9°
2
Windvlaag: 2 m/s
37%
06:00
17°
1013.0 hPa 19.4 mm
21%
15.2°
2
Windvlaag: 1.9 m/s
54%
07:00
17°
1013.1 hPa 20.0 mm
22%
15.3°
2
Windvlaag: 1.6 m/s
56%
08:00
19°
1013.0 hPa 19.7 mm
21%
17.0°
2
Windvlaag: 1.5 m/s
67%
09:00
21°
1013.1 hPa
21%
18.7°
1
Windvlaag: 2.2 m/s
19%
10:00
22°
1012.6 hPa
25%
19.3°
2
Windvlaag: 2.5 m/s
18%
11:00
24°
1012.0 hPa
30%
19.6°
1
Windvlaag: 1.9 m/s
14%
12:00
25°
1011.5 hPa
83%
19.7°
1
Windvlaag: 3 m/s
23%
13:00
25°
1010.8 hPa
56%
19.4°
2
Windvlaag: 2.5 m/s
37%
14:00
26°
1010.2 hPa
53%
19.8°
2
Windvlaag: 2.9 m/s
17%
15:00
26°
1009.7 hPa
93%
21.3°
2
Windvlaag: 3.4 m/s
49%
16:00
25°
1009.6 hPa 19.6 mm
100%
19.3°
1
Windvlaag: 2.1 m/s
55% warningclass
17:00
24°
1009.6 hPa 19.5 mm
100%
17.7°
2
Windvlaag: 1.7 m/s
70% warningclass
18:00
23°
1009.6 hPa
92%
19.4°
2
Windvlaag: 4 m/s
74%
19:00
22°
1009.8 hPa
42%
20.0°
1
Windvlaag: 5.8 m/s
86%
20:00
21°
1010.1 hPa 20.1 mm
90%
18.9°
2
Windvlaag: 8.5 m/s
97%
21:00
19°
1010.8 hPa 20.8 mm
100%
15.7°
1
Windvlaag: 10.4 m/s
90%
22:00
19°
1010.9 hPa 20.4 mm
100%
13.2°
1
Windvlaag: 10.5 m/s
82%
23:00
18°
1011.2 hPa 22.5 mm
100%
11.8°
2
Windvlaag: 10.1 m/s
91% warningclass
 05:46     20:43    Daglengte: 14:57 Zaterdag 31 Jul
00:00
18°
1011.2 hPa 21.1 mm
100%
11.8°
1
Windvlaag: 8.3 m/s
86% warningclass
01:00
18°
1011.0 hPa 21.2 mm
100%
11.3°
2
Windvlaag: 7.9 m/s
83%
02:00
18°
1010.8 hPa 20.1 mm
100%
11.3°
2
Windvlaag: 8.9 m/s
82%
Temp/Neerslag /Baro Onweer/Dauwpunt
    Temp Baro Neerslag Dauwpunt Wind Bewolking  
 05:42     20:47    Daglengte: 15:05 Vandaag
08:00
19°
1015.6 hPa 6.0 mm 12.1°
2
58%
11:00
22°
1015.0 hPa   11.0°
2
41%
14:00
22°
1014.5 hPa   11.7°
3
62%
17:00
19°
1016.1 hPa 25.9 mm 17.5°
2
86%
20:00
18°
1017.0 hPa 8.0 mm 17.2°
1
67%
23:00
17°
1017.2 hPa   15.8°
1
38%
 05:43     20:46    Daglengte: 15:03 Morgen
02:00
16°
1017.1 hPa   14.5°
1
30%
05:00
15°
1017.1 hPa   13.5°
2
8%
08:00
17°
1017.2 hPa   16.1°
1
10%
11:00
22°
1016.2 hPa   14.2°
2
4%
14:00
24°
1014.8 hPa   13.0°
3
15%
17:00
25°
1013.8 hPa   12.0°
2
11%
20:00
22°
1013.7 hPa   16.8°
1
12%
23:00
19°
1014.2 hPa   17.5°
2
48%
 05:44     20:44    Daglengte: 15:00 Vrijdag 30 Jul
02:00
18°
1013.8 hPa 35.7 mm 16.6°
2
59%
05:00
17°
1013.2 hPa 57.7 mm 15.9°
2
37%
08:00
19°
1013.0 hPa 59.0 mm 17.0°
2
67%
11:00
24°
1012.0 hPa   19.6°
1
14%
14:00
26°
1010.2 hPa   19.8°
2
17%
17:00
24°
1009.6 hPa 39.1 mm 17.7°
2
70% warningclass
20:00
21°
1010.1 hPa 20.1 mm 18.9°
2
97%
23:00
18°
1011.2 hPa 63.7 mm 11.8°
2
91% warningclass
 05:46     20:43    Daglengte: 14:57 Zaterdag 31 Jul
02:00
18°
1010.8 hPa 62.5 mm 11.3°
2
82%
05:00
17°
1012.6 hPa 27.1 mm 15.9°
1
1%
08:00
17°
1012.9 hPa 29.7 mm 16.4°
1
1%
11:00
22°
1012.1 hPa 29.8 mm 17.1°
2
1%
14:00
20°
1013.0 hPa 30.3 mm 16.1°
2
1%
17:00
18°
1014.2 hPa 30.7 mm 16.4°
1
1%
20:00
17°
1014.2 hPa 31.2 mm 16.1°
1
1%
23:00
16°
1014.2 hPa 31.8 mm 15.5°
1
1%
 05:47     20:42    Daglengte: 14:55 Zondag 01 Aug
02:00
16°
1012.2 hPa 32.4 mm 14.9°
1
1%
05:00
15°
1011.1 hPa 38.6 mm 15.3°
1
1%
08:00
15°
1011.8 hPa 46.2 mm 15.0°
2
1%
11:00
14°
1013.1 hPa 55.9 mm 14.0°
1
1%
14:00
15°
1013.5 hPa 63.0 mm 12.9°
1
1%
17:00
17°
1013.3 hPa 63.5 mm 12.8°
0
1%
20:00
16°
1014.0 hPa 63.5 mm 12.6°
1
1%
23:00
13°
1015.9 hPa 63.5 mm 10.1°
2
0%
 05:48     20:40    Daglengte: 14:52 Maandag 02 Aug
02:00
12°
1015.8 hPa 63.5 mm 8.9°
2
0%
05:00
12°
1016.1 hPa 63.5 mm 8.4°
2
1%
08:00
16°
1015.5 hPa 63.5 mm 10.7°
1
1%
11:00
21°
1014.6 hPa 63.5 mm 13.5°
2
0%
14:00
23°
1013.9 hPa 63.6 mm 13.8°
3
0%
17:00
21°
1014.1 hPa 64.3 mm 15.2°
2
1%
20:00
18°
1015.3 hPa 66.0 mm 15.5°
0
0%
23:00
15°
1017.0 hPa 66.1 mm 13.6°
2
1%
 05:50     20:39    Daglengte: 14:49 Dinsdag 03 Aug
02:00
14°
1017.2 hPa 66.3 mm 13.6°
2
1%
05:00
15°
1017.5 hPa 68.0 mm 14.5°
2
1%
08:00
17°
1017.6 hPa 68.3 mm 15.3°
2
1%
11:00
24°
1015.8 hPa 68.3 mm 13.8°
1
0%
14:00
27°
1013.8 hPa 68.3 mm 14.8°
2
0%
17:00
25°
1013.0 hPa 68.4 mm 16.2°
2
1%
20:00
20°
1012.6 hPa 68.8 mm 17.8°
1
1%
23:00
18°
1014.8 hPa 72.0 mm 17.2°
2
1%
 05:51     20:37    Daglengte: 14:46 Woensdag 04 Aug
02:00
16°
1015.9 hPa 76.1 mm 15.6°
2
1%
05:00
16°
1014.8 hPa   14.7°
2
1%
08:00
18°
1015.2 hPa 154.3 mm 15.5°
1
1%
14:00
26°
1012.1 hPa 154.6 mm 16.3°
2
0%
20:00
20°
1012.0 hPa 156.9 mm 17.8°
1
1%
 05:52     20:36    Daglengte: 14:44 Donderdag 05 Aug
02:00
17°
1012.5 hPa 158.0 mm 14.8°
2
1%
08:00
17°
1013.2 hPa 160.2 mm 16.9°
0
1%
14:00
24°
1007.1 hPa 163.6 mm 17.5°
1
1%
20:00
17°
1006.9 hPa 172.4 mm 16.3°
5
1%
 05:53     20:34    Daglengte: 14:41 Vrijdag 06 Aug
02:00
15°
1009.8 hPa 192.1 mm 13.6°
1
1%
08:00
16°
1009.7 hPa 192.3 mm 13.7°
0
0%
14:00
23°
1008.0 hPa 192.4 mm 13.3°
3
0%
20:00
19°
1007.6 hPa 192.7 mm 15.2°
1
0%
 05:55     20:33    Daglengte: 14:38 Zaterdag 07 Aug
02:00
14°
1013.2 hPa 3.2 mm 13.1°
1
73%
08:00
15°
1013.7 hPa 3.0 mm 13.7°
1
68%
14:00
20°
1012.9 hPa 1.7 mm 14.8°
1
69%
20:00
17°
1014.1 hPa 2.5 mm 14.9°
0
71%
 05:56     20:31    Daglengte: 14:35 Zondag 08 Aug
02:00
14°
1016.5 hPa 1.9 mm 12.5°
2
63%
08:00
16°
1016.7 hPa 0.7 mm 13.5°
1
53%
14:00
22°
1015.6 hPa 0.5 mm 14.9°
2
53%
20:00
18°
1016.3 hPa 1.7 mm 15.9°
1
66%
 05:57     20:29    Daglengte: 14:32 Maandag 09 Aug
02:00
15°
1018.5 hPa 1.7 mm 13.4°
1
65%
08:00
16°
1018.8 hPa 0.8 mm 14.1°
1
57%
14:00
23°
1017.9 hPa 1.4 mm 15.1°
1
53%
20:00
18°
1018.2 hPa 0.8 mm 15.7°
0
51%
 05:59     20:28    Daglengte: 14:29 Dinsdag 10 Aug
02:00
15°
1020.2 hPa 1.4 mm 13.2°
1
54%
08:00
16°
1020.1 hPa 0.6 mm 14.2°
1
54%
14:00
22°
1019.0 hPa 1.5 mm 15.2°
2
55%
20:00
17°
1019.5 hPa 2.6 mm 15.2°
1
54%
 06:00     20:26    Daglengte: 14:26 Woensdag 11 Aug
02:00
14°
1020.8 hPa 1.3 mm 12.9°
1
55%
08:00
15°
1020.5 hPa 1.4 mm 13.8°
1
57%
14:00
22°
1018.9 hPa 2.3 mm 14.8°
2
61%
20:00
17°
1019.2 hPa 1.9 mm 15.2°
1
58%
 06:01     20:24    Daglengte: 14:23 Donderdag 12 Aug
02:00
14°
1020.8 hPa 1.4 mm 12.7°
1
53%
  CAPE Lifted Index Hail Supercell Tornado SRH 3km CL BTM PRES CL TOP PRES Swiss DWD icon SMHI TS
 05:42     20:47    Daglengte: 15:05 Vandaag
06:00 0 J/kg 0.7 K 0 % 0 % 0 % 0 m²/s² 0 0 1.48 95
07:00 0 J/kg 0.3 K 0 % 0 % 0 % 0 m²/s² 0 0 1.08 80
08:00 223 J/kg -1.1 K 0 % 0 % 0 % 0 m²/s² 0 0 -0.53 80
09:00 511 J/kg -2.2 K 0 % 0 % 0 % 0 m²/s² 0 0 -1.51 3
10:00 564 J/kg -2.4 K 0 % 0 % 0 % 0 m²/s² 0 0 -1.59 3
11:00 702 J/kg -2.5 K 0 % 0 % 0 % 0 m²/s² 0 0 -1.57 3
12:00 817 J/kg -3.1 K 0 % 0 % 0 % 0 m²/s² 0 0 -2.32 3
13:00 939 J/kg -3.6 K 0 % 0 % 0 % 0 m²/s² 0 0 -2.64 3
14:00 948 J/kg -4.0 K 0 % 0 % 0 % 0 m²/s² 0 0 -3.91 3
15:00 112 J/kg -0.3 K 0 % 0 % 0 % 0 m²/s² 0 0 -0.18 95
16:00 33 J/kg 1.0 K 0 % 0 % 0 % 0 m²/s² 0 0 1.54 95
17:00 43 J/kg 0.0 K 0 % 0 % 0 % 0 m²/s² 0 0 0.03 81
18:00 3 J/kg 0.5 K 0 % 0 % 0 % 0 m²/s² 0 0 0.59 80
19:00 2 J/kg 0.3 K 0 % 0 % 0 % 0 m²/s² 0 0 1.41 3
20:00 9 J/kg 0.5 K 0 % 0 % 0 % 0 m²/s² 0 0 2.45 3
21:00 0 J/kg 0.1 K 0 % 0 % 0 % 0 m²/s² 0 0 0.73 3
22:00 0 J/kg 0.0 K 0 % 0 % 0 % 0 m²/s² 0 0 0.72 3
23:00 0 J/kg -0.2 K 0 % 0 % 0 % 0 m²/s² 0 0 0.61 2
 05:43     20:46    Daglengte: 15:03 Morgen
00:00 0 J/kg -0.4 K 0 % 0 % 0 % 0 m²/s² 0 0 1.34 2
01:00 0 J/kg -0.9 K 0 % 0 % 0 % 0 m²/s² 0 0 0.84 2
02:00 0 J/kg -0.9 K 0 % 0 % 0 % 0 m²/s² 0 0 0.9 2
03:00 0 J/kg -0.7 K 0 % 0 % 0 % 0 m²/s² 0 0 1.16 1
04:00 0 J/kg -0.9 K 0 % 0 % 0 % 0 m²/s² 0 0 1.11 1
05:00 0 J/kg -0.5 K 0 % 0 % 0 % 0 m²/s² 0 0 1.24 1
06:00 0 J/kg -0.1 K 0 % 0 % 0 % 0 m²/s² 0 0 1.13 2
07:00 0 J/kg 0.1 K 0 % 0 % 0 % 0 m²/s² 0 0 1.06 2
08:00 1 J/kg 0.4 K 0 % 0 % 0 % 0 m²/s² 0 0 1.42 2
09:00 0 J/kg 0.2 K 0 % 0 % 0 % 0 m²/s² 0 0 1.64 1
10:00 165 J/kg -0.8 K 0 % 0 % 0 % 0 m²/s² 0 0 1.06 1
11:00 465 J/kg -1.5 K 0 % 0 % 0 % 0 m²/s² 0 0 0.51 1
12:00 712 J/kg -2.0 K 0 % 0 % 0 % 0 m²/s² 0 0 -0.11 2
13:00 817 J/kg -2.3 K 0 % 0 % 0 % 0 m²/s² 0 0 -0.74 2
14:00 831 J/kg -2.4 K 0 % 0 % 0 % 0 m²/s² 0 0 -0.93 2
15:00 860 J/kg -2.7 K 0 % 0 % 0 % 0 m²/s² 0 0 -1.5 2
16:00 865 J/kg -2.9 K 0 % 0 % 0 % 0 m²/s² 0 0 -1.97 2
17:00 911 J/kg -3.3 K 0 % 0 % 0 % 0 m²/s² 0 0 -2.58 1
18:00 937 J/kg -3.7 K 0 % 0 % 0 % 0 m²/s² 0 0 -3.25 1
19:00 705 J/kg -2.9 K 0 % 0 % 0 % 0 m²/s² 0 0 -2.81 1
20:00 523 J/kg -2.6 K 0 % 0 % 0 % 0 m²/s² 0 0 -2.39 1
21:00 627 J/kg -2.1 K 0 % 0 % 0 % 0 m²/s² 0 0 -2.01 1
22:00 703 J/kg -3.4 K 0 % 0 % 0 % 0 m²/s² 0 0 -3.4 2
23:00 740 J/kg -3.4 K 0 % 0 % 0 % 0 m²/s² 0 0 -3.04 2
 05:44     20:44    Daglengte: 15:00 Vrijdag 30 Jul
00:00 447 J/kg -2.0 K 0 % 0 % 0 % 0 m²/s² 0 0 -1.16 2
01:00 288 J/kg -2.6 K 0 % 0 % 0 % 0 m²/s² 0 0 -2.15 2
02:00 35 J/kg -1.8 K 0 % 0 % 0 % 0 m²/s² 0 0 -1.53 2
03:00 83 J/kg -2.3 K 0 % 0 % 0 % 0 m²/s² 0 0 -1.61 1
04:00 76 J/kg -2.6 K 0 % 0 % 0 % 0 m²/s² 0 0 -2.6 1
05:00 98 J/kg -2.2 K 0 % 0 % 0 % 0 m²/s² 0 0 -1.48 1
06:00 119 J/kg -2.5 K 0 % 0 % 0 % 0 m²/s² 0 0 -0.16 1
07:00 115 J/kg -2.3 K 0 % 0 % 0 % 0 m²/s² 0 0 0.19 1
08:00 322 J/kg -2.3 K 0 % 0 % 0 % 0 m²/s² 0 0 -0.23 1
09:00 369 J/kg -2.3 K 0 % 0 % 0 % 0 m²/s² 0 0 -0.62 1
10:00 445 J/kg -2.3 K 0 % 0 % 0 % 0 m²/s² 0 0 -0.8 1
11:00 722 J/kg -2.8 K 0 % 0 % 0 % 0 m²/s² 0 0 -1.12 1
12:00 990 J/kg -3.5 K 0 % 0 % 0 % 0 m²/s² 0 0 -1.82 2
13:00 1206 J/kg -4.1 K 0 % 0 % 0 % 0 m²/s² 0 0 -2.6 3
14:00 1145 J/kg -4.6 K 0 % 0 % 0 % 0 m²/s² 0 0 -3.25 0
15:00 758 J/kg -5.0 K 0 % 0 % 0 % 0 m²/s² 0 0 -4.52 3
16:00 681 J/kg -3.5 K 0 % 0 % 0 % 0 m²/s² 0 0 -2.87 80
17:00 869 J/kg -4.0 K 0 % 0 % 0 % 0 m²/s² 0 0 -3.7 3
18:00 750 J/kg -3.5 K 0 % 0 % 0 % 0 m²/s² 0 0 -2.15 3
19:00 538 J/kg -2.8 K 0 % 0 % 0 % 0 m²/s² 0 0 -2.53 3
20:00 367 J/kg -2.7 K 0 % 0 % 0 % 0 m²/s² 0 0 -2.49 3
21:00 0 J/kg -1.1 K 0 % 0 % 0 % 0 m²/s² 0 0 1.57 80
22:00 0 J/kg -1.7 K 0 % 0 % 0 % 0 m²/s² 0 0 1.9 61
23:00 0 J/kg -2.2 K 0 % 0 % 0 % 0 m²/s² 0 0 0.68 95
 05:46     20:43    Daglengte: 14:57 Zaterdag 31 Jul
00:00 0 J/kg -2.9 K 0 % 0 % 0 % 0 m²/s² 0 0 -1.04 95
01:00 0 J/kg -2.5 K 0 % 0 % 0 % 0 m²/s² 0 0 -0.82 80
02:00 0 J/kg -0.9 K 0 % 0 % 0 % 0 m²/s² 0 0 0.96 3
Temp Baro Wind Neerslag
  EWN Forecast EWN WRFDA DWD ICON FMI HIRLAM MET Norway GFS
 05:42     20:47    Daglengte: 15:05 Vandaag
08:00 19.3° 1015.6 hPa 1.7 m/s 6.0 mm 23.5° 1012.4 hPa 2.8 m/s 33.6 mm 17.6° 1016.0 hPa 1.7 m/s 4.3 mm 21.0° 1016.3 hPa 1.1 m/s 0.0 mm 18.8° 1016.1 hPa 0.2 m/s
11:00 21.8° 1015.0 hPa 1.7 m/s 0.0 mm 23.5° 1013.9 hPa 3.6 m/s 33.6 mm 20.7° 1015.1 hPa 1.1 m/s 0.2 mm 27.4° 1015.0 hPa 1.4 m/s 0.0 mm 23.4° 1014.6 hPa 1.3 m/s
14:00 22.1° 1014.5 hPa 3.3 m/s 0.0 mm 23.0° 1012.3 hPa 3.0 m/s 34.0 mm 20.7° 1014.8 hPa 3.4 m/s 0.1 mm 29.8° 1013.5 hPa 3.1 m/s 0.0 mm 22.5° 1014.6 hPa 3.4 m/s
17:00 18.7° 1016.1 hPa 1.9 m/s 25.9 mm 20.4° 1014.7 hPa 1.4 m/s 104.2 mm 17.9° 1016.2 hPa 2.2 m/s 8.2 mm 22.6° 1015.2 hPa 2.0 m/s 0.0 mm 17.4° 1017.7 hPa 2.8 m/s
20:00 18.0° 1017.0 hPa 1.4 m/s 8.0 mm 19.6° 1013.9 hPa 3.9 m/s 116.1 mm 17.4° 1017.1 hPa 1.2 m/s 0.7 mm 20.4° 1017.3 hPa 0.1 m/s 0.0 mm 16.3° 1018.6 hPa 2.5 m/s
23:00 16.9° 1017.2 hPa 1.3 m/s 0.0 mm 19.4° 1014.8 hPa 4.2 m/s 117.0 mm 16.4° 1016.8 hPa 0.8 m/s 0.1 mm 17.3° 1019.0 hPa 0.9 m/s 0.0 mm 14.9° 1018.6 hPa 2.3 m/s
 05:43     20:46    Daglengte: 15:03 Morgen
02:00 15.7° 1017.1 hPa 1.4 m/s 0.0 mm 17.7° 1014.6 hPa 2.9 m/s 117.0 mm 14.8° 1017.1 hPa 1.1 m/s 0.0 mm 15.5° 1019.4 hPa 1.2 m/s 0.0 mm 14.2° 1018.5 hPa 2.0 m/s
05:00 14.7° 1017.1 hPa 1.8 m/s 0.0 mm 16.7° 1014.3 hPa 2.1 m/s 117.0 mm 13.8° 1017.3 hPa 1.3 m/s 0.0 mm 14.5° 1019.2 hPa 1.8 m/s 0.0 mm 13.8° 1018.1 hPa 1.9 m/s
08:00 17.4° 1017.2 hPa 1.1 m/s 0.0 mm 20.4° 1014.6 hPa 1.0 m/s 117.0 mm 17.0° 1017.1 hPa 1.1 m/s 0.0 mm 17.5° 1017.9 hPa 1.3 m/s 0.0 mm 18.2° 1017.7 hPa 1.0 m/s
11:00 22.3° 1016.2 hPa 1.7 m/s 0.0 mm 23.1° 1013.9 hPa 1.9 m/s 117.0 mm 20.5° 1016.7 hPa 0.9 m/s 0.0 mm 26.1° 1015.6 hPa 1.7 m/s 0.0 mm 24.8° 1016.3 hPa 1.1 m/s
14:00 24.1° 1014.8 hPa 2.6 m/s 0.0 mm 25.4° 1012.7 hPa 3.1 m/s 117.0 mm 22.3° 1015.4 hPa 1.7 m/s 0.0 mm 29.4° 1013.7 hPa 2.7 m/s 0.0 mm 26.9° 1014.2 hPa 2.1 m/s
17:00 24.6° 1013.8 hPa 1.8 m/s 0.0 mm 25.7° 1011.6 hPa 3.0 m/s 117.0 mm 22.9° 1014.2 hPa 1.4 m/s 0.0 mm 29.0° 1013.2 hPa 2.4 m/s 0.0 mm 26.5° 1013.1 hPa 2.6 m/s
20:00 21.8° 1013.7 hPa 0.7 m/s 0.0 mm 21.4° 1011.2 hPa 1.4 m/s 122.0 mm 21.3° 1013.9 hPa 0.3 m/s 0.0 mm 24.3° 1013.8 hPa 0.7 m/s 0.0 mm 21.8° 1013.4 hPa 1.0 m/s
23:00 18.7° 1014.2 hPa 1.6 m/s 0.0 mm 20.5° 1012.6 hPa 1.7 m/s 146.0 mm 17.2° 1014.8 hPa 1.5 m/s 0.0 mm 17.9° 1014.2 hPa 1.7 m/s
 05:44     20:44    Daglengte: 15:00 Vrijdag 30 Jul
02:00 17.8° 1013.8 hPa 1.8 m/s 35.7 mm 19.0° 1012.6 hPa 2.0 m/s 158.0 mm 16.6° 1014.5 hPa 1.2 m/s 0.0 mm 17.9° 1014.7 hPa 1.1 m/s
05:00 17.0° 1013.2 hPa 1.6 m/s 57.7 mm 18.6° 1012.5 hPa 1.3 m/s 169.9 mm 15.6° 1013.8 hPa 1.5 m/s 0.0 mm 17.4° 1014.8 hPa 0.5 m/s
08:00 19.0° 1013.0 hPa 1.6 m/s 59.0 mm 19.7° 1012.6 hPa 1.5 m/s 173.0 mm 19.2° 1013.6 hPa 1.6 m/s 0.0 mm 19.4° 1014.8 hPa 0.4 m/s
11:00 23.8° 1012.0 hPa 1.0 m/s 0.0 mm 22.2° 1012.3 hPa 1.8 m/s 173.0 mm 24.1° 1011.9 hPa 0.8 m/s 0.0 mm 21.6° 1014.8 hPa 1.7 m/s
14:00 25.8° 1010.2 hPa 2.0 m/s 0.0 mm 24.3° 1010.4 hPa 2.8 m/s 173.0 mm 26.2° 1010.1 hPa 1.8 m/s 0.0 mm 24.6° 1012.8 hPa 1.5 m/s
17:00 24.3° 1009.6 hPa 1.5 m/s 39.1 mm 24.8° 1009.3 hPa 1.1 m/s 174.7 mm 24.1° 1009.7 hPa 1.6 m/s 0.3 mm 25.0° 1011.9 hPa 2.4 m/s
20:00 21.5° 1010.1 hPa 1.7 m/s 20.1 mm 21.0° 1010.5 hPa 2.0 m/s 177.6 mm 21.6° 1010.1 hPa 1.6 m/s 0.4 mm 21.6° 1011.8 hPa 0.8 m/s
23:00 18.2° 1011.2 hPa 1.7 m/s 63.7 mm 20.3° 1008.7 hPa 4.5 m/s 179.5 mm 17.6° 1011.9 hPa 1.0 m/s 5.8 mm 18.2° 1012.1 hPa 2.7 m/s
 05:46     20:43    Daglengte: 14:57 Zaterdag 31 Jul
02:00 17.6° 1010.8 hPa 1.8 m/s 62.5 mm 19.5° 1009.3 hPa 3.7 m/s 179.7 mm 17.1° 1011.2 hPa 1.3 m/s 3.8 mm 17.9° 1011.8 hPa 1.9 m/s
05:00 17.1° 1012.6 hPa 0.7 m/s 27.1 mm 17.1° 1012.6 hPa 0.7 m/s 27.1 mm
08:00 17.3° 1012.9 hPa 0.9 m/s 29.7 mm 17.3° 1012.9 hPa 0.9 m/s 29.7 mm
11:00 21.9° 1012.1 hPa 2.1 m/s 29.8 mm 21.9° 1012.1 hPa 2.1 m/s 29.8 mm
14:00 20.4° 1013.0 hPa 2.5 m/s 30.3 mm 20.4° 1013.0 hPa 2.5 m/s 30.3 mm
17:00 17.6° 1014.2 hPa 1.3 m/s 30.7 mm 17.6° 1014.2 hPa 1.3 m/s 30.7 mm
20:00 16.7° 1014.2 hPa 0.5 m/s 31.2 mm 16.7° 1014.2 hPa 0.5 m/s 31.2 mm
23:00 16.3° 1014.2 hPa 1.1 m/s 31.8 mm 16.3° 1014.2 hPa 1.1 m/s 31.8 mm
 05:47     20:42    Daglengte: 14:55 Zondag 01 Aug
02:00 15.9° 1012.2 hPa 1.3 m/s 32.4 mm 15.9° 1012.2 hPa 1.3 m/s 32.4 mm
05:00 15.4° 1011.1 hPa 0.9 m/s 38.6 mm 15.4° 1011.1 hPa 0.9 m/s 38.6 mm
08:00 15.3° 1011.8 hPa 1.7 m/s 46.2 mm 15.3° 1011.8 hPa 1.7 m/s 46.2 mm
11:00 14.5° 1013.1 hPa 1.4 m/s 55.9 mm 14.5° 1013.1 hPa 1.4 m/s 55.9 mm
14:00 15.0° 1013.5 hPa 0.9 m/s 63.0 mm 15.0° 1013.5 hPa 0.9 m/s 63.0 mm
17:00 16.6° 1013.3 hPa 0.5 m/s 63.5 mm 16.6° 1013.3 hPa 0.5 m/s 63.5 mm
20:00 15.7° 1014.0 hPa 1.1 m/s 63.5 mm 15.7° 1014.0 hPa 1.1 m/s 63.5 mm
23:00 12.5° 1015.9 hPa 1.9 m/s 63.5 mm 12.5° 1015.9 hPa 1.9 m/s 63.5 mm
 05:48     20:40    Daglengte: 14:52 Maandag 02 Aug
02:00 12.0° 1015.8 hPa 2.2 m/s 63.5 mm 12.0° 1015.8 hPa 2.2 m/s 63.5 mm
05:00 11.7° 1016.1 hPa 2.0 m/s 63.5 mm 11.7° 1016.1 hPa 2.0 m/s 63.5 mm
08:00 15.9° 1015.5 hPa 1.0 m/s 63.5 mm 15.9° 1015.5 hPa 1.0 m/s 63.5 mm
11:00 21.5° 1014.6 hPa 1.5 m/s 63.5 mm 21.5° 1014.6 hPa 1.5 m/s 63.5 mm
14:00 22.9° 1013.9 hPa 2.7 m/s 63.6 mm 22.9° 1013.9 hPa 2.7 m/s 63.6 mm
17:00 21.5° 1014.1 hPa 2.0 m/s 64.3 mm 21.5° 1014.1 hPa 2.0 m/s 64.3 mm
20:00 17.5° 1015.3 hPa 0.3 m/s 66.0 mm 17.5° 1015.3 hPa 0.3 m/s 66.0 mm
23:00 14.8° 1017.0 hPa 1.8 m/s 66.1 mm 14.8° 1017.0 hPa 1.8 m/s 66.1 mm
 05:50     20:39    Daglengte: 14:49 Dinsdag 03 Aug
02:00 14.4° 1017.2 hPa 1.5 m/s 66.3 mm 14.4° 1017.2 hPa 1.5 m/s 66.3 mm
05:00 14.9° 1017.5 hPa 1.7 m/s 68.0 mm 14.9° 1017.5 hPa 1.7 m/s 68.0 mm
08:00 17.1° 1017.6 hPa 1.6 m/s 68.3 mm 17.1° 1017.6 hPa 1.6 m/s 68.3 mm
11:00 23.9° 1015.8 hPa 1.1 m/s 68.3 mm 23.9° 1015.8 hPa 1.1 m/s 68.3 mm
14:00 26.7° 1013.8 hPa 1.8 m/s 68.3 mm 26.7° 1013.8 hPa 1.8 m/s 68.3 mm
17:00 24.6° 1013.0 hPa 2.3 m/s 68.4 mm 24.6° 1013.0 hPa 2.3 m/s 68.4 mm
20:00 20.0° 1012.6 hPa 0.5 m/s 68.8 mm 20.0° 1012.6 hPa 0.5 m/s 68.8 mm
23:00 17.7° 1014.8 hPa 1.7 m/s 72.0 mm 17.7° 1014.8 hPa 1.7 m/s 72.0 mm
 05:51     20:37    Daglengte: 14:46 Woensdag 04 Aug
02:00 16.1° 1015.9 hPa 1.7 m/s 76.1 mm 16.1° 1015.9 hPa 1.7 m/s 76.1 mm
05:00 15.8° 1014.8 hPa 1.6 m/s 77.1 mm 15.8° 1014.8 hPa 1.6 m/s 77.1 mm
08:00 17.7° 1015.2 hPa 0.9 m/s 77.1 mm 17.7° 1015.2 hPa 0.9 m/s 77.1 mm
14:00 25.6° 1012.1 hPa 1.9 m/s 77.4 mm 25.6° 1012.1 hPa 1.9 m/s 77.4 mm
20:00 20.4° 1012.0 hPa 0.9 m/s 79.0 mm 20.4° 1012.0 hPa 0.9 m/s 79.0 mm
 05:52     20:36    Daglengte: 14:44 Donderdag 05 Aug
02:00 16.6° 1012.5 hPa 2.3 m/s 79.0 mm 16.6° 1012.5 hPa 2.3 m/s 79.0 mm
08:00 17.2° 1013.2 hPa 0.4 m/s 80.6 mm 17.2° 1013.2 hPa 0.4 m/s 80.6 mm
14:00 24.1° 1007.1 hPa 1.4 m/s 82.0 mm 24.1° 1007.1 hPa 1.4 m/s 82.0 mm
20:00 17.1° 1006.9 hPa 5.0 m/s 88.5 mm 17.1° 1006.9 hPa 5.0 m/s 88.5 mm
 05:53     20:34    Daglengte: 14:41 Vrijdag 06 Aug
02:00 14.6° 1009.8 hPa 0.8 m/s 96.1 mm 14.6° 1009.8 hPa 0.8 m/s 96.1 mm
08:00 15.7° 1009.7 hPa 0.4 m/s 96.2 mm 15.7° 1009.7 hPa 0.4 m/s 96.2 mm
14:00 22.7° 1008.0 hPa 2.6 m/s 96.2 mm 22.7° 1008.0 hPa 2.6 m/s 96.2 mm
20:00 18.5° 1007.6 hPa 0.6 m/s 96.4 mm 18.5° 1007.6 hPa 0.6 m/s 96.4 mm
 05:55     20:33    Daglengte: 14:38 Zaterdag 07 Aug
02:00 14.4° 1013.2 hPa 1.4 m/s 3.2 mm
08:00 15.4° 1013.7 hPa 1.1 m/s 3.0 mm
14:00 20.4° 1012.9 hPa 1.2 m/s 1.7 mm
20:00 16.7° 1014.1 hPa 0.4 m/s 2.5 mm
 05:56     20:31    Daglengte: 14:35 Zondag 08 Aug
02:00 13.8° 1016.5 hPa 1.6 m/s 1.9 mm
08:00 15.6° 1016.7 hPa 1.0 m/s 0.7 mm
14:00 22.5° 1015.6 hPa 1.5 m/s 0.5 mm
20:00 17.7° 1016.3 hPa 0.6 m/s 1.7 mm
 05:57     20:29    Daglengte: 14:32 Maandag 09 Aug
02:00 14.7° 1018.5 hPa 1.2 m/s 1.7 mm
08:00 16.1° 1018.8 hPa 0.7 m/s 0.8 mm
14:00 22.9° 1017.9 hPa 1.4 m/s 1.4 mm
20:00 18.2° 1018.2 hPa 0.2 m/s 0.8 mm
 05:59     20:28    Daglengte: 14:29 Dinsdag 10 Aug
02:00 14.7° 1020.2 hPa 1.4 m/s 1.4 mm
08:00 16.3° 1020.1 hPa 0.9 m/s 0.6 mm
14:00 22.0° 1019.0 hPa 1.8 m/s 1.5 mm
20:00 17.2° 1019.5 hPa 0.9 m/s 2.6 mm
 06:00     20:26    Daglengte: 14:26 Woensdag 11 Aug
02:00 14.1° 1020.8 hPa 1.2 m/s 1.3 mm
08:00 15.4° 1020.5 hPa 0.9 m/s 1.4 mm
14:00 21.8° 1018.9 hPa 1.7 m/s 2.3 mm
20:00 17.0° 1019.2 hPa 1.0 m/s 1.9 mm
 06:01     20:24    Daglengte: 14:23 Donderdag 12 Aug
02:00 13.7° 1020.8 hPa 1.1 m/s 1.4 mm
FMI Hirlam - 7.5 km EWN WRFDA - 12 km DWD ICON - 7 km GFS - 25 km Basiskaart






























































Updatetijd (Europe/Amsterdam) Resolutie Lengte Stap
FMI Hirlam 01:45, 07:45, 13:45, 19:45 7.5 km 49h 1h
EWN WRFDA 22:30, 04:30, 10:30, 16:30 12 km 73h 1h
DWD ICON 00:00, 06:00, 12:00, 18:00 7 km 75h 1h
GFS 02:15, 08:15, 14:15, 20:15 25 km 237h 3h
30+ mm
25-30 mm
20-25 mm
15-20 mm
10-15 mm
6-10 mm
4-6 mm
2-4 mm
1-2 mm
0.5-1 mm
0.2-0.5 mm
0.1-0.2 mm
30+ mm
25-30 mm
20-25 mm
15-20 mm
10-15 mm
6-10 mm
4-6 mm